Time,TemperatureF,DewpointF,PressureIn,WindDirection,WindDirectionDegrees,WindSpeedMPH,WindSpeedGustMPH,Humidity,HourlyPrecipIn,Conditions,Clouds,dailyrainin,SoftwareType,DateUTC
2013-08-23 00:01:00,73.9,72.0,30.01,SW,232,0.0,-999.0,95,-99.99,,,0.00,weatherlink.com 1.10,2013-08-23 05:01:00,
2013-08-23 00:16:00,73.9,72.0,30.01,SW,232,0.0,-999.0,95,-99.99,,,0.00,weatherlink.com 1.10,2013-08-23 05:16:00,
2013-08-23 00:31:00,73.7,72.0,30.00,SW,232,0.0,-999.0,95,-99.99,,,0.00,weatherlink.com 1.10,2013-08-23 05:31:00,
2013-08-23 00:46:00,73.5,72.0,30.00,SW,232,0.0,-999.0,95,-99.99,,,0.00,weatherlink.com 1.10,2013-08-23 05:46:00,
2013-08-23 01:02:00,73.1,72.0,30.00,SW,232,0.0,-999.0,95,-99.99,,,0.00,weatherlink.com 1.10,2013-08-23 06:02:00,
2013-08-23 01:16:00,72.9,71.0,29.99,SW,232,0.0,-999.0,95,-99.99,,,0.00,weatherlink.com 1.10,2013-08-23 06:16:00,
2013-08-23 01:31:00,72.7,71.0,29.99,SW,232,0.0,-999.0,95,-99.99,,,0.00,weatherlink.com 1.10,2013-08-23 06:31:00,
2013-08-23 01:46:00,72.8,72.0,29.99,SW,232,0.0,-999.0,96,-99.99,,,0.00,weatherlink.com 1.10,2013-08-23 06:46:00,
2013-08-23 02:01:00,72.7,72.0,29.99,SW,232,0.0,-999.0,96,-99.99,,,0.00,weatherlink.com 1.10,2013-08-23 07:01:00,
2013-08-23 02:16:00,72.8,72.0,29.99,SW,232,0.0,-999.0,96,-99.99,,,0.00,weatherlink.com 1.10,2013-08-23 07:16:00,
2013-08-23 02:31:00,72.5,71.0,29.98,SW,232,0.0,-999.0,96,-99.99,,,0.00,weatherlink.com 1.10,2013-08-23 07:31:00,
2013-08-23 02:46:00,72.2,71.0,29.98,SW,232,0.0,-999.0,96,-99.99,,,0.00,weatherlink.com 1.10,2013-08-23 07:46:00,
2013-08-23 03:01:00,72.1,71.0,29.98,SW,232,0.0,-999.0,96,-99.99,,,0.00,weatherlink.com 1.10,2013-08-23 08:01:00,
2013-08-23 03:16:00,71.9,71.0,29.99,SW,232,0.0,-999.0,96,-99.99,,,0.00,weatherlink.com 1.10,2013-08-23 08:16:00,
2013-08-23 03:31:00,71.8,71.0,29.99,SW,232,0.0,-999.0,96,-99.99,,,0.00,weatherlink.com 1.10,2013-08-23 08:31:00,
2013-08-23 03:47:00,72.0,71.0,29.99,SW,232,0.0,-999.0,96,-99.99,,,0.00,weatherlink.com 1.10,2013-08-23 08:47:00,
2013-08-23 04:01:00,71.8,71.0,29.98,SW,232,0.0,-999.0,96,-99.99,,,0.00,weatherlink.com 1.10,2013-08-23 09:01:00,
2013-08-23 04:16:00,71.6,70.0,29.99,SW,232,0.0,-999.0,96,-99.99,,,0.00,weatherlink.com 1.10,2013-08-23 09:16:00,
2013-08-23 04:31:00,71.5,70.0,29.99,SW,232,0.0,-999.0,96,-99.99,,,0.00,weatherlink.com 1.10,2013-08-23 09:31:00,
2013-08-23 04:46:00,71.4,70.0,29.98,SW,232,0.0,-999.0,96,-99.99,,,0.00,weatherlink.com 1.10,2013-08-23 09:46:00,
2013-08-23 05:01:00,71.5,70.0,29.99,SW,232,0.0,-999.0,96,-99.99,,,0.00,weatherlink.com 1.10,2013-08-23 10:01:00,
2013-08-23 05:16:00,71.4,70.0,29.99,SW,232,0.0,-999.0,96,-99.99,,,0.00,weatherlink.com 1.10,2013-08-23 10:16:00,
2013-08-23 05:31:00,71.3,70.0,29.99,SW,232,0.0,-999.0,96,-99.99,,,0.00,weatherlink.com 1.10,2013-08-23 10:31:00,
2013-08-23 05:46:00,71.2,70.0,30.00,SW,232,0.0,-999.0,96,-99.99,,,0.00,weatherlink.com 1.10,2013-08-23 10:46:00,
2013-08-23 06:01:00,71.3,70.0,30.00,SW,232,0.0,-999.0,96,-99.99,,,0.00,weatherlink.com 1.10,2013-08-23 11:01:00,
2013-08-23 06:16:00,71.5,71.0,30.00,SW,232,0.0,-999.0,97,-99.99,,,0.00,weatherlink.com 1.10,2013-08-23 11:16:00,
2013-08-23 06:32:00,71.5,71.0,30.01,SW,232,0.0,-999.0,97,-99.99,,,0.00,weatherlink.com 1.10,2013-08-23 11:32:00,
2013-08-23 06:46:00,71.7,71.0,30.02,SW,232,0.0,-999.0,97,-99.99,,,0.00,weatherlink.com 1.10,2013-08-23 11:46:00,
2013-08-23 07:01:00,71.7,71.0,30.02,SW,232,0.0,-999.0,97,-99.99,,,0.00,weatherlink.com 1.10,2013-08-23 12:01:00,
2013-08-23 07:16:00,71.8,71.0,30.03,SSW,200,0.0,-999.0,97,-99.99,,,0.00,weatherlink.com 1.10,2013-08-23 12:16:00,
2013-08-23 07:31:00,72.2,71.0,30.03,SSW,200,0.0,-999.0,96,-99.99,,,0.00,weatherlink.com 1.10,2013-08-23 12:31:00,
2013-08-23 07:46:00,73.1,72.0,30.04,South,191,0.0,-999.0,96,-99.99,,,0.00,weatherlink.com 1.10,2013-08-23 12:46:00,
2013-08-23 08:01:00,73.9,72.0,30.04,South,191,0.0,-999.0,94,-99.99,,,0.00,weatherlink.com 1.10,2013-08-23 13:01:00,
2013-08-23 08:16:00,74.6,73.0,30.03,South,191,0.0,-999.0,93,-99.99,,,0.00,weatherlink.com 1.10,2013-08-23 13:16:00,
2013-08-23 08:31:00,74.9,72.0,30.03,NW,312,0.0,-999.0,91,-99.99,,,0.00,weatherlink.com 1.10,2013-08-23 13:31:00,
2013-08-23 08:46:00,75.0,72.0,30.04,NW,315,0.0,-999.0,91,-99.99,,,0.00,weatherlink.com 1.10,2013-08-23 13:46:00,
2013-08-23 09:01:00,74.9,72.0,30.04,North,355,0.0,-999.0,91,-99.99,,,0.00,weatherlink.com 1.10,2013-08-23 14:01:00,
2013-08-23 09:17:00,75.7,73.0,30.04,North,355,0.0,-999.0,90,-99.99,,,0.00,weatherlink.com 1.10,2013-08-23 14:17:00,
2013-08-23 09:31:00,76.6,73.0,30.04,NNW,333,0.0,-999.0,88,-99.99,,,0.00,weatherlink.com 1.10,2013-08-23 14:31:00,
2013-08-23 09:46:00,77.4,73.0,30.05,North,355,1.0,-999.0,86,-99.99,,,0.00,weatherlink.com 1.10,2013-08-23 14:46:00,
2013-08-23 10:01:00,78.5,73.0,30.04,NNW,335,5.0,-999.0,84,-99.99,,,0.00,weatherlink.com 1.10,2013-08-23 15:01:00,
2013-08-23 10:16:00,79.7,74.0,30.04,NE,34,0.0,-999.0,83,-99.99,,,0.00,weatherlink.com 1.10,2013-08-23 15:16:00,
2013-08-23 10:31:00,81.1,75.0,30.04,NNW,329,0.0,-999.0,81,-99.99,,,0.00,weatherlink.com 1.10,2013-08-23 15:31:00,
2013-08-23 10:46:00,81.6,75.0,30.04,NNW,338,0.0,-999.0,79,-99.99,,,0.00,weatherlink.com 1.10,2013-08-23 15:46:00,
2013-08-23 11:01:00,82.1,75.0,30.04,NNW,342,0.0,-999.0,78,-99.99,,,0.00,weatherlink.com 1.10,2013-08-23 16:01:00,
2013-08-23 11:16:00,83.1,75.0,30.03,North,355,0.0,-999.0,77,-99.99,,,0.00,weatherlink.com 1.10,2013-08-23 16:16:00,
2013-08-23 11:31:00,83.5,75.0,30.03,North,11,5.0,-999.0,75,-99.99,,,0.00,weatherlink.com 1.10,2013-08-23 16:31:00,
2013-08-23 11:46:00,83.5,75.0,30.02,North,349,0.0,-999.0,75,-99.99,,,0.00,weatherlink.com 1.10,2013-08-23 16:46:00,
2013-08-23 12:02:00,84.4,74.0,30.01,NNE,15,4.0,-999.0,70,-99.99,,,0.00,weatherlink.com 1.10,2013-08-23 17:02:00,
2013-08-23 12:16:00,85.1,73.0,30.01,NNW,348,4.0,-999.0,68,-99.99,,,0.00,weatherlink.com 1.10,2013-08-23 17:16:00,
2013-08-23 12:31:00,85.1,74.0,30.00,NNW,337,3.0,-999.0,69,-99.99,,,0.00,weatherlink.com 1.10,2013-08-23 17:31:00,
2013-08-23 12:46:00,85.3,74.0,30.00,NNW,344,5.0,-999.0,69,-99.99,,,0.00,weatherlink.com 1.10,2013-08-23 17:46:00,
2013-08-23 13:01:00,86.1,74.0,30.00,NNW,346,1.0,-999.0,68,-99.99,,,0.00,weatherlink.com 1.10,2013-08-23 18:01:00,
2013-08-23 13:16:00,86.5,74.0,29.99,NNW,331,6.0,-999.0,66,-99.99,,,0.00,weatherlink.com 1.10,2013-08-23 18:16:00,
2013-08-23 13:31:00,87.0,74.0,29.99,NNW,347,7.0,-999.0,65,-99.99,,,0.00,weatherlink.com 1.10,2013-08-23 18:31:00,
2013-08-23 13:46:00,87.3,73.0,29.98,NNW,348,6.0,-999.0,63,-99.99,,,0.00,weatherlink.com 1.10,2013-08-23 18:46:00,
2013-08-23 14:01:00,87.1,73.0,29.98,NNW,339,8.0,-999.0,64,-99.99,,,0.00,weatherlink.com 1.10,2013-08-23 19:01:00,
2013-08-23 14:16:00,87.3,73.0,29.97,NNW,342,6.0,-999.0,62,-99.99,,,0.00,weatherlink.com 1.10,2013-08-23 19:16:00,
2013-08-23 14:31:00,87.6,72.0,29.96,NNW,336,6.0,-999.0,61,-99.99,,,0.00,weatherlink.com 1.10,2013-08-23 19:31:00,
2013-08-23 14:47:00,88.4,72.0,29.95,NNW,343,5.0,-999.0,58,-99.99,,,0.00,weatherlink.com 1.10,2013-08-23 19:47:00,
2013-08-23 15:01:00,88.6,71.0,29.95,NW,326,1.0,-999.0,57,-99.99,,,0.00,weatherlink.com 1.10,2013-08-23 20:01:00,
2013-08-23 15:16:00,88.7,71.0,29.94,NNW,338,4.0,-999.0,57,-99.99,,,0.00,weatherlink.com 1.10,2013-08-23 20:16:00,
2013-08-23 15:31:00,88.6,72.0,29.94,NNW,336,0.0,-999.0,58,-99.99,,,0.00,weatherlink.com 1.10,2013-08-23 20:31:00,
2013-08-23 15:46:00,88.7,73.0,29.94,NNW,329,0.0,-999.0,59,-99.99,,,0.00,weatherlink.com 1.10,2013-08-23 20:46:00,
2013-08-23 16:01:00,88.7,74.0,29.94,NNW,338,6.0,-999.0,61,-99.99,,,0.00,weatherlink.com 1.10,2013-08-23 21:01:00,
2013-08-23 16:16:00,88.4,75.0,29.93,North,360,5.0,-999.0,65,-99.99,,,0.00,weatherlink.com 1.10,2013-08-23 21:16:00,
2013-08-23 16:31:00,88.1,73.0,29.93,NE,36,0.0,-999.0,62,-99.99,,,0.00,weatherlink.com 1.10,2013-08-23 21:31:00,
2013-08-23 16:46:00,88.5,73.0,29.94,North,11,1.0,-999.0,61,-99.99,,,0.00,weatherlink.com 1.10,2013-08-23 21:46:00,
2013-08-23 17:01:00,88.7,73.0,29.94,ENE,67,3.0,-999.0,59,-99.99,,,0.00,weatherlink.com 1.10,2013-08-23 22:01:00,
2013-08-23 17:16:00,88.5,71.0,29.94,North,350,0.0,-999.0,56,-99.99,,,0.00,weatherlink.com 1.10,2013-08-23 22:16:00,
2013-08-23 17:32:00,88.2,72.0,29.94,NNE,15,1.0,-999.0,59,-99.99,,,0.00,weatherlink.com 1.10,2013-08-23 22:32:00,
2013-08-23 17:46:00,87.6,73.0,29.95,NNE,16,0.0,-999.0,62,-99.99,,,0.00,weatherlink.com 1.10,2013-08-23 22:46:00,
2013-08-23 18:01:00,87.3,73.0,29.94,NNE,25,0.0,-999.0,62,-99.99,,,0.00,weatherlink.com 1.10,2013-08-23 23:01:00,
2013-08-23 18:16:00,87.2,75.0,29.94,NNE,25,0.0,-999.0,66,-99.99,,,0.00,weatherlink.com 1.10,2013-08-23 23:16:00,
2013-08-23 18:31:00,85.8,75.0,29.94,NNE,25,0.0,-999.0,71,-99.99,,,0.00,weatherlink.com 1.10,2013-08-23 23:31:00,
2013-08-23 18:46:00,84.6,75.0,29.94,NNE,25,0.0,-999.0,73,-99.99,,,0.00,weatherlink.com 1.10,2013-08-23 23:46:00,
2013-08-23 19:01:00,82.6,75.0,29.94,NNE,25,0.0,-999.0,77,-99.99,,,0.00,weatherlink.com 1.10,2013-08-24 00:01:00,
2013-08-23 19:16:00,81.5,74.0,29.94,NNE,25,0.0,-999.0,79,-99.99,,,0.00,weatherlink.com 1.10,2013-08-24 00:16:00,
2013-08-23 19:31:00,80.1,74.0,29.94,NNE,25,0.0,-999.0,82,-99.99,,,0.00,weatherlink.com 1.10,2013-08-24 00:31:00,
2013-08-23 19:46:00,79.4,74.0,29.96,NNE,25,0.0,-999.0,83,-99.99,,,0.00,weatherlink.com 1.10,2013-08-24 00:46:00,
2013-08-23 20:01:00,78.6,74.0,29.96,NNE,25,0.0,-999.0,86,-99.99,,,0.00,weatherlink.com 1.10,2013-08-24 01:01:00,
2013-08-23 20:17:00,78.2,74.0,29.96,NNE,25,0.0,-999.0,87,-99.99,,,0.00,weatherlink.com 1.10,2013-08-24 01:17:00,
2013-08-23 20:31:00,78.0,74.0,29.96,NNE,25,0.0,-999.0,88,-99.99,,,0.00,weatherlink.com 1.10,2013-08-24 01:31:00,
2013-08-23 20:46:00,77.4,74.0,29.96,NNE,25,0.0,-999.0,89,-99.99,,,0.00,weatherlink.com 1.10,2013-08-24 01:46:00,
2013-08-23 21:01:00,76.8,74.0,29.97,NNE,25,0.0,-999.0,90,-99.99,,,0.00,weatherlink.com 1.10,2013-08-24 02:01:00,
2013-08-23 21:16:00,76.5,74.0,29.98,NNE,25,0.0,-999.0,91,-99.99,,,0.00,weatherlink.com 1.10,2013-08-24 02:16:00,
2013-08-23 21:31:00,76.2,74.0,29.99,NNE,25,0.0,-999.0,91,-99.99,,,0.00,weatherlink.com 1.10,2013-08-24 02:31:00,
2013-08-23 21:46:00,75.9,74.0,29.99,NNE,25,0.0,-999.0,92,-99.99,,,0.00,weatherlink.com 1.10,2013-08-24 02:46:00,
2013-08-23 22:01:00,75.6,74.0,29.99,NNE,25,0.0,-999.0,93,-99.99,,,0.00,weatherlink.com 1.10,2013-08-24 03:01:00,
2013-08-23 22:16:00,75.3,73.0,29.99,NNE,17,0.0,-999.0,92,-99.99,,,0.00,weatherlink.com 1.10,2013-08-24 03:16:00,
2013-08-23 22:31:00,74.8,73.0,29.99,NNE,17,0.0,-999.0,93,-99.99,,,0.00,weatherlink.com 1.10,2013-08-24 03:31:00,
2013-08-23 22:46:00,74.7,73.0,29.99,NNE,17,0.0,-999.0,93,-99.99,,,0.00,weatherlink.com 1.10,2013-08-24 03:46:00,
2013-08-23 23:02:00,74.6,73.0,30.00,North,9,0.0,-999.0,93,-99.99,,,0.00,weatherlink.com 1.10,2013-08-24 04:02:00,
2013-08-23 23:16:00,74.6,73.0,30.01,North,9,0.0,-999.0,94,-99.99,,,0.00,weatherlink.com 1.10,2013-08-24 04:16:00,
2013-08-23 23:31:00,75.1,73.0,30.00,North,9,0.0,-999.0,94,-99.99,,,0.00,weatherlink.com 1.10,2013-08-24 04:31:00,
2013-08-23 23:46:00,74.9,73.0,30.00,North,9,0.0,-999.0,94,-99.99,,,0.00,weatherlink.com 1.10,2013-08-24 04:46:00,